User: anonymous   Login
Location: Bühlhof
(48.7849°N, 8.6361°E)
Time: 10:39:21
(UTC+00:00)
Language:

Meteor 1-28 Rocket - Orbit

View from above orbital plane
View from above orbital plane
View from above satellite
View from above satellite

Ground track
Ground track

The orbit is defined by the following mean orbital elements,

1 10114U          26071.95619840 +.00000000 +00000-0 +32379-3 0 00005
2 10114  97.5779 244.0207 0006169 271.1830  88.8712 15.45596028    05
Epoch (UTC): 12 March 2026 22:56:55
Eccentricity: 0.0006169
inclination: 97.5779°
perigee height: 425 km
apogee height: 434 km
right ascension of ascending node: 244.0207°
argument of perigee: 271.1830°
revolutions per day: 15.45596028
mean anomaly at epoch: 88.8712°

The dashed part of the orbit path shows where the satellite is in the earth's shadow,  

DLR